sat.trackr.live / text

‹ back to catalog

STARLINK-35830

NORAD 66284 · 2025-247V

PAYLOAD ACTIVE UNKNOWN

§ Identity

Operator
Country
US
Launch date
2025-10-31
Launch site
AFWTR
Launch vehicle
Mass (kg)
RCS (m²)

Purposes: comms

External: N2YO · Heavens-Above · Gunter

§ Orbital elements

Epoch: 2026-09-20T17:09:11.523744Z

Period
93.85 min
Inclination
53.1602°
Eccentricity
0.0001380
Mean motion
15.34400010 rev/d
Perigee alt
461.8 km
Apogee alt
463.6 km
Semi-major
6,840.8 km
B*
5.0644e-4
RAAN
2.6790°
Arg perigee
81.9404°
Mean anomaly
278.1755°
Rev number
5,093

§ Raw data

STARLINK-358301 66284U 25247V   26263.71471671  .00016773  00000+0  50644-3 0  99942 66284  53.1602   2.6790 0001380  81.9404 278.1755 15.34400010 50937

JSON: /api/v1/satellites/66284 · /tle

For live sub-satellite position, see the globe view (requires WebGL).

§ Visibility from observer

Set your observer location to see the next 7 days of passes ≥ 10°. The values pass through the URL so the page stays shareable.

No JS? Fill the form by hand. The geolocation button needs JavaScript.